Location: Forst
(46.9333°N, 15.4333°E)
Time: 01:03:47
(UTC+00:00)

X-37B - Pass Details

Date: 29 September 2021
Orbit: 385 x 389 km, 45.0° (Epoch: 13 October)

Event Time Altitude Azimuth Distance (km) Brightness Sun altitude
Exits shadow 03:02:44 59° 152° (SSE) 451 0.8 -19.6°
Drops below altitude 10° 03:05:38 10° 99° (E) 1,414 4.4 -19.1°
Sets 03:07:43 0° 96° (E) 2,269 5.7 -18.8°
